DW3735 Weather Reports


Display with metric or nautical units.
time (UTC)temp
F
wind
direction
speed
MPH
gust
MPH
rain 1hr
in
rain 24hr
in
rain mn
in
humidity
%
barometer
mb
20260905224517 67 0.0 0.0 0.00 0.02 0.02 86 1015.1
20260905223537 67 0.0 0.0 0.00 0.02 0.02 85 1015.1
20260905222517 67 0.0 0.0 0.00 0.02 0.02 85 1015.1
20260905221517 67 0.0 0.0 0.00 0.02 0.02 85 1015.0
20260905220517 66 0.0 0.0 0.00 0.02 0.02 85 1014.9
20260905215516 66 0 1.0 1.0 0.00 0.02 0.02 87 1014.8
20260905214517 66 0.0 1.0 0.00 0.02 0.02 86 1014.7
20260905213517 66 0.0 1.0 0.00 0.02 0.02 85 1014.7
20260905212517 67 0.0 1.0 0.00 0.02 0.02 83 1014.5
20260905211537 68 68 1.0 4.0 0.01 0.02 0.02 82 1014.7
20260905210518 69 68 3.0 7.0 0.02 0.02 0.02 81 1014.7
20260905205517 68 68 1.0 3.0 0.02 0.02 0.02 82 1014.7
20260905204517 68 0.0 1.0 0.02 0.02 0.02 82 1014.6
20260905203537 68 0.0 1.0 0.02 0.02 0.02 83 1014.6
20260905202517 68 68 1.0 3.0 0.02 0.02 0.02 84 1014.6
20260905201517 69 68 3.0 5.0 0.01 0.01 0.01 81 1014.7
20260905201017 70 68 4.0 9.0 0.00 0.00 0.00 78 1014.7
20260905200017 71 315 1.0 3.0 0.00 0.00 0.00 76 1014.7
20260905195517 71 0.0 2.0 0.00 0.00 0.00 76 1014.7
20260905195037 71 315 2.0 6.0 0.00 0.00 0.00 75 1014.6
20260905194017 71 315 2.0 8.0 0.00 0.00 0.00 73 1014.5
20260905193017 70 315 1.0 8.0 0.00 0.00 0.00 74 1014.5
20260905192017 71 315 1.0 5.0 0.00 0.00 0.00 77 1014.5
20260905191017 70 315 2.0 6.0 0.00 0.00 0.00 78 1014.7
20260905190017 70 0.0 2.0 0.00 0.00 0.00 80 1014.5
20260905185037 70 338 1.0 4.0 0.00 0.00 0.00 80 1014.7
20260905184017 69 338 1.0 5.0 0.00 0.00 0.00 81 1014.7
20260905183017 69 293 1.0 3.0 0.00 0.00 0.00 83 1014.8
20260905182017 68 23 1.0 4.0 0.00 0.00 0.00 83 1014.9
20260905181017 68 0.0 2.0 0.00 0.00 0.00 83 1014.8
20260905180017 68 315 1.0 2.0 0.00 0.00 0.00 81 1014.8
20260905175017 68 338 2.0 4.0 0.00 0.00 0.00 80 1014.9
20260905174017 68 0.0 2.0 0.00 0.00 0.00 81 1014.9
20260905173038 68 0.0 2.0 0.00 0.00 0.00 82 1014.9
20260905172017 68 0.0 2.0 0.00 0.00 0.00 82 1014.8
20260905171017 67 0.0 2.0 0.00 0.00 0.00 84 1015.0
20260905170017 67 68 1.0 4.0 0.00 0.00 0.00 82 1015.0
20260905165017 67 68 1.0 2.0 0.00 0.00 0.00 83 1015.1
20260905164017 66 68 1.0 2.0 0.00 0.00 0.00 83 1015.0
20260905163017 66 68 2.0 4.0 0.00 0.00 0.00 83 1015.1
20260905162017 66 293 1.0 4.0 0.00 0.00 0.00 85 1015.2
20260905161017 66 0.0 1.0 0.00 0.00 0.00 86 1015.2
20260905160038 66 68 1.0 2.0 0.00 0.00 0.00 85 1015.3
20260905155018 66 68 1.0 2.0 0.00 0.00 0.00 85 1015.4
20260905154017 65 68 1.0 4.0 0.00 0.00 0.00 84 1015.4
20260905153017 65 68 2.0 4.0 0.00 0.00 0.00 86 1015.4
20260905152017 65 45 1.0 2.0 0.00 0.00 0.00 85 1015.4
20260905151017 64 45 1.0 4.0 0.00 0.00 0.00 87 1015.3
20260905150057 64 293 1.0 4.0 0.00 0.00 0.00 86 1015.2
20260905145017 64 68 2.0 4.0 0.00 0.00 0.00 87 1015.2
20260905144018 63 68 2.0 4.0 0.00 0.00 0.00 87 1015.2
20260905143037 63 68 1.0 4.0 0.00 0.00 0.00 87 1015.2
20260905142037 63 68 1.0 5.0 0.00 0.00 0.00 88 1015.1
20260905141017 63 68 2.0 5.0 0.00 0.00 0.00 88 1015.0
20260905140018 63 68 1.0 4.0 0.00 0.00 0.00 88 1015.1
20260905135017 63 68 2.0 5.0 0.00 0.00 0.00 88 1015.1
20260905134017 63 68 1.0 3.0 0.00 0.00 0.00 88 1015.0
20260905133017 63 68 2.0 5.0 0.00 0.00 0.00 89 1014.9
20260905132017 62 68 1.0 3.0 0.00 0.00 0.00 89 1014.9
20260905131017 62 68 2.0 3.0 0.00 0.00 0.00 90 1015.0
20260905130017 62 68 1.0 2.0 0.00 0.00 0.00 90 1014.9
20260905125017 62 68 1.0 3.0 0.00 0.00 0.00 91 1014.8
20260905124017 61 338 1.0 5.0 0.00 0.00 0.00 93 1014.8
20260905123017 61 0.0 2.0 0.00 0.00 0.00 94 1014.7
20260905122017 61 0.0 1.0 0.00 0.00 0.00 95 1014.7
20260905121017 60 0.0 3.0 0.00 0.00 0.00 95 1014.6
20260905120017 60 0.0 0.0 0.00 0.00 0.00 96 1014.6
20260905115017 60 0.0 0.0 0.00 0.00 0.00 96 1014.5
20260905114018 60 0.0 0.0 0.00 0.00 0.00 96 1014.4
20260905113017 59 0.0 0.0 0.00 0.00 0.00 96 1014.4
20260905112017 59 0.0 0.0 0.00 0.00 0.00 96 1014.2
20260905111017 59 0.0 0.0 0.00 0.00 0.00 96 1014.1
20260905110017 59 0.0 0.0 0.00 0.00 0.00 96 1014.2
20260905105017 59 0.0 0.0 0.00 0.00 0.00 96 1014.0
20260905104038 59 0.0 0.0 0.00 0.00 0.00 96 1014.1
20260905103017 59 0.0 0.0 0.00 0.00 0.00 96 1014.0
20260905102038 58 0.0 0.0 0.00 0.00 0.00 96 1014.0
20260905101017 58 0.0 0.0 0.00 0.00 0.00 96 1013.9
20260905100017 58 0.0 0.0 0.00 0.00 0.00 96 1013.8
20260905095017 58 0.0 1.0 0.00 0.00 0.00 96 1013.8
20260905094017 58 338 1.0 3.0 0.00 0.00 0.00 96 1013.6
20260905093017 58 338 1.0 2.0 0.00 0.00 0.00 96 1013.6
20260905092017 58 0.0 0.0 0.00 0.00 0.00 96 1013.6
20260905091017 58 0.0 0.0 0.00 0.00 0.00 96 1013.5
20260905090018 58 0.0 0.0 0.00 0.00 0.00 96 1013.5
20260905085037 58 0.0 0.0 0.00 0.00 0.00 96 1013.5
20260905084017 58 0.0 0.0 0.00 0.00 0.00 96 1013.6
20260905083017 58 0.0 0.0 0.00 0.00 0.00 96 1013.4
20260905082017 58 0.0 0.0 0.00 0.00 0.00 96 1013.5
20260905081017 58 0.0 0.0 0.00 0.00 0.00 96 1013.3
20260905080037 58 0.0 0.0 0.00 0.00 0.00 96 1013.3
20260905075017 58 0.0 0.0 0.00 0.00 0.00 95 1013.3
20260905074017 58 0.0 0.0 0.00 0.00 0.00 95 1013.2
20260905073017 58 0.0 0.0 0.00 0.00 0.00 95 1013.0
20260905072017 58 0.0 0.0 0.00 0.00 0.00 95 1013.1
20260905071017 59 0.0 0.0 0.00 0.00 0.00 95 1013.0
20260905070017 59 0.0 0.0 0.00 0.00 0.00 95 1013.1
20260905065017 59 0.0 0.0 0.00 0.00 0.00 95 1013.0
20260905064038 59 0.0 0.0 0.00 0.00 0.00 95 1012.8
20260905063017 59 0.0 0.0 0.00 0.00 0.00 94 1012.9
20260905062038 59 0.0 0.0 0.00 0.00 0.00 95 1013.0
20260905061037 59 0.0 0.0 0.00 0.00 0.00 95 1012.9
20260905060017 59 0.0 0.0 0.00 0.00 0.00 94 1012.8
20260905055017 59 0.0 0.0 0.00 0.00 0.00 94 1012.8
20260905054018 59 0.0 0.0 0.00 0.00 0.00 94 1012.8
20260905053017 59 0.0 0.0 0.00 0.00 0.00 94 1012.8
20260905052017 59 0.0 0.0 0.00 0.00 0.00 94 1012.8
20260905051037 60 0.0 0.0 0.00 0.00 0.00 94 1012.9
20260905050017 59 0.0 0.0 0.00 0.00 0.00 94 1013.0
20260905045017 59 0.0 0.0 0.00 0.00 0.00 93 1012.9
20260905044017 59 0.0 0.0 0.00 0.00 0.00 91 1012.9
20260905043038 60 0.0 0.0 0.00 0.00 0.00 90 1012.9
20260905042017 60 0.0 0.0 0.00 0.00 0.00 89 1012.8
20260905041037 60 0.0 0.0 0.00 0.00 0.00 89 1012.9
20260905040017 61 0.0 0.0 0.00 0.00 0.00 90 1012.8
20260905035017 61 0.0 0.0 0.00 0.00 0.00 90 1012.9
20260905034017 61 0.0 0.0 0.00 0.00 0.00 90 1013.0
20260905033037 61 0.0 0.0 0.00 0.00 0.00 89 1012.9
20260905032017 61 0.0 0.0 0.00 0.00 0.00 89 1013.0
20260905031017 61 0.0 0.0 0.00 0.00 0.00 88 1013.2
20260905030038 61 0.0 0.0 0.00 0.00 0.00 88 1013.2
20260905025017 61 0.0 0.0 0.00 0.00 0.00 87 1013.2
20260905024058 62 0.0 0.0 0.00 0.00 0.00 87 1013.2
20260905023017 62 0.0 0.0 0.00 0.00 0.00 87 1013.1
20260905022037 63 0.0 0.0 0.00 0.00 0.00 85 1013.2
20260905021018 63 0.0 0.0 0.00 0.00 0.00 84 1013.3
20260905020018 63 0.0 0.0 0.00 0.00 0.00 84 1013.2
20260905015017 63 0.0 0.0 0.00 0.00 0.00 84 1013.2
20260905014017 63 0.0 0.0 0.00 0.00 0.00 84 1013.1
20260905013017 64 0.0 0.0 0.00 0.00 0.00 85 1013.0
20260905012017 64 0.0 0.0 0.00 0.00 0.00 84 1013.0
20260905011017 64 0.0 0.0 0.00 0.00 0.00 84 1012.9
20260905010017 65 0.0 0.0 0.00 0.00 0.00 82 1012.9
20260905005017 65 0.0 1.0 0.00 0.00 0.00 82 1012.7
20260905004017 65 0.0 0.0 0.00 0.00 0.00 81 1012.6
20260905003017 66 0.0 0.0 0.00 0.00 0.00 81 1012.5
20260905002037 66 0.0 0.0 0.00 0.00 0.00 82 1012.5
20260905001017 66 0.0 0.0 0.00 0.00 0.00 81 1012.4
20260905000038 67 0.0 2.0 0.00 0.00 0.00 83 1012.4
20260904235017 67 0.0 0.0 0.00 0.00 0.00 83 1012.4
20260904234017 67 0.0 0.0 0.00 0.00 0.00 83 1012.3
20260904233038 67 0.0 0.0 0.00 0.00 0.00 82 1012.3
20260904232017 67 0.0 0.0 0.00 0.00 0.00 82 1012.4
20260904231018 67 0.0 0.0 0.00 0.00 0.00 82 1012.4
20260904230017 68 0.0 0.0 0.00 0.00 0.00 81 1012.4
20260904225017 68 0.0 0.0 0.00 0.00 0.00 82 1012.4